Regional Weather Roundup
Issued by NWS

Home | Current Version | Previous Version | Text Only | Print | Product List | Glossary On
Versions: 1 2 3 4 5 6 7 8 9 10 11 12 13 14 15 16 17 18 19 20 21 22 23 24 25 26 27 28 29 30 31 32 33 34 35 36 37 38 39 40 41 42 43 44 45 46 47 48 49 50
000
ASUS45 KCYS 141710
RWRWY

WYOMING REGIONAL WEATHER ROUNDUP
NATIONAL WEATHER SERVICE CHEYENNE WY
1000 AM MST THU NOV 14 2019

NOTE:  "FAIR" INDICATES FEW OR NO CLOUDS BELOW 12,000 FEET
WITH NO SIGNIFICANT WEATHER AND/OR OBSTRUCTIONS TO VISIBILITY.

WYZ001-141800-
...YELLOWSTONE NATIONAL PARK...

CITY           SKY/WX    TMP DP  RH WIND       PRES   REMARKS
LK YELLOWSTONE   N/A     27  23  85 CALM      30.29F
W YELLOWSTONE  NOT AVBL

$$
WYZ002>013-054>058-071-098>099-141800-
...NORTHERN WYOMING...

CITY           SKY/WX    TMP DP  RH WIND       PRES   REMARKS
JACKSON        SUNNY     28  19  69 CALM      30.31S
CODY           PTSUNNY   35  28  75 N3        30.20S
GREYBULL       SUNNY     32  28  85 CALM      30.23F
WORLAND        SUNNY     31  29  92 W3        30.21F
SHERIDAN       SUNNY     35  29  78 CALM      30.18F
BUFFALO        MOSUNNY   41  29  62 CALM      30.18S
GILLETTE       SUNNY     44  33  65 S8        30.21R
HULETT         FAIR      41  34  75 SW9       30.23R
NEWCASTLE      FAIR      36  34  93 SW6       30.27S WCI  31

$$
WYZ014>020-022>026-101>103-141800-
...CENTRAL WYOMING...

CITY           SKY/WX    TMP DP  RH WIND       PRES   REMARKS
BIG PINEY      SUNNY     32  20  61 E6        30.31S WCI  26
PINEDALE       MOSUNNY   32  19  59 W3        30.31S
DUBOIS         FAIR      39  16  38 N18G26    30.20S WCI  30
LANDER         SUNNY     36  27  69 CALM      30.22S
RIVERTON       SUNNY     32  25  75 VRB3      30.24S
CASPER         SUNNY     41  29  62 SW16      30.23F
DOUGLAS        SUNNY     33  28  81 SE3       30.26F

$$
WYZ021-027>030-104>119-141800-
...SOUTHERN WYOMING...

CITY           SKY/WX    TMP DP  RH WIND       PRES   REMARKS
EVANSTON       SUNNY     41  24  51 S6        30.28S
KEMMERER       SUNNY     36  28  75 CALM      30.30S
FORT BRIDGER   NOT AVBL
ROCK SPRINGS   SUNNY     32  24  72 E3        30.30R
DIXON          FAIR      36  22  57 SE7       30.35S WCI  30
RAWLINS        SUNNY     34  26  72 VRB3      30.29S
SARATOGA       FAIR      37  23  56 SE12      30.30S WCI  30
LARAMIE        SUNNY     31  27  85 S6        30.28S WCI  25
CHEYENNE       MOSUNNY   33  30  88 SW8       30.29S WCI  26
TORRINGTON     SUNNY     40  33  76 CALM      30.28F
PINE BLUFFS    CLOUDY    32  32 100 SW15      30.33R FOG     WCI  22

$$



USA.gov is the U.S. government's official web portal to all federal, state and local government web resources and services.